Regional Weather Roundup
Issued by NWS Little Rock, AR

Home | Current Version | Previous Version | Text Only | Print | Product List | Glossary Off
Versions: 1 2 3 4 5 6 7 8 9 10 11 12 13 14 15 16 17 18 19 20 21 22 23 24 25 26 27 28 29 30 31

000
ASUS44 KLZK 210805
RWRLZK

WEATHER ROUNDUP FOR ARKANSAS
NATIONAL WEATHER SERVICE LITTLE ROCK AR
200 AM CST SUN JAN 21 2018

NOTE: "FAIR" INDICATES FEW OR NO CLOUDS BELOW 12,000 FEET WITH NO
SIGNIFICANT WEATHER AND/OR OBSTRUCTIONS TO VISIBILITY.

ARZ001-003-010-029-210900-
NORTHWEST ARKANSAS

CITY           SKY/WX    TMP DP  RH WIND       PRES   REMARKS
FAYETTEVILLE   PTCLDY    57  54  89 S16G24    29.90S
FORT SMITH     CLOUDY    51  50  96 NE5       29.93S
HARRISON       MOCLDY    58  52  80 S13G20    29.92S
BENTONVILLE    CLEAR     56  51  84 S12G18    29.90S
ROGERS         PTCLDY    56  51  84 S18G24    29.89S
SILOAM SPGS    CLEAR     57  52  83 S20       29.89S
HIGHFILL       CLEAR     57  53  86 S18       29.88S
$$

ARZ004-005-016-210900-
NORTH CENTRAL ARKANSAS

CITY           SKY/WX    TMP DP  RH WIND       PRES   REMARKS
BATESVILLE     LGT RAIN  58  56  93 S10G21    30.00S
FLIPPIN        PTCLDY    58  53  84 S5        29.94S
MTN HOME       PTCLDY    55  53  93 S6        29.93
$$

ARZ040-041-210900-
WEST CENTRAL ARKANSAS

CITY           SKY/WX    TMP DP  RH WIND       PRES   REMARKS
MENA           CLOUDY    63  63 100 SW6       29.98R
MOUNT IDA      CLOUDY    63  59  87 S7G17     29.95F
$$

ARZ009-017-025-026-028-210900-
NORTHEAST ARKANSAS

CITY           SKY/WX    TMP DP  RH WIND       PRES   REMARKS
JONESBORO      CLOUDY    52  52 100 S8        30.04R
NEWPORT        FAIR      55  53  93 S16       30.02S
WALNUT RIDGE   CLOUDY    51  50  96 S13       30.01F
BLYTHEVILLE    CLOUDY    53  53 100 S8        30.06S
$$

ARZ022-023-033-042-044-210900-
CENTRAL ARKANSAS

CITY           SKY/WX    TMP DP  RH WIND       PRES   REMARKS
LITTLE ROCK    CLOUDY    61  58  90 S12G22    30.02S
N LITTLE ROCK    N/A     59  57  92 SW9       29.96S
JACKSONVILLE   CLOUDY    60  58  92 S9        30.01R
SEARCY         CLOUDY    58  58 100 S13       30.03R
HOT SPRINGS    CLOUDY    61  59  93 S7        30.01S
RUSSELLVILLE   CLOUDY    61  56  83 CALM      29.97S
CLINTON        CLOUDY    59  55  88 S6        29.99S
$$

ARZ036-210900-
EAST ARKANSAS

CITY           SKY/WX    TMP DP  RH WIND       PRES   REMARKS
WEST MEMPHIS   CLOUDY    55  51  86 S18       30.06S
$$

ARZ050-053-066-070-073-210900-
SOUTHWEST ARKANSAS

CITY           SKY/WX    TMP DP  RH WIND       PRES   REMARKS
ARKADELPHIA    CLOUDY    60  57  89 S7        30.03S
CAMDEN         CLOUDY    63  55  77 S7        30.04S
TEXARKANA      CLOUDY    61  60  97 S12       30.01S
EL DORADO      CLOUDY    62  60  93 S10       30.05R
DE QUEEN       CLOUDY    62  61  96 VRB6      29.97S
$$

ARZ056-057-069-210900-
SOUTHEAST ARKANSAS

CITY           SKY/WX    TMP DP  RH WIND       PRES   REMARKS
PINE BLUFF     CLOUDY    60  56  86 S15       30.05R
MONTICELLO     CLOUDY    59  54  83 S8        30.07S

$$






USA.gov is the U.S. government's official web portal to all federal, state and local government web resources and services.